Regional Weather Roundup
Issued by NWS Grand Forks, ND

Home | Current Version | Previous Version | Text Only | Print | Product List | Glossary On
Versions: 1 2 3 4 5 6 7 8 9 10 11 12 13 14 15 16 17 18 19 20 21 22 23 24 25 26 27 28 29 30 31 32 33 34 35 36 37 38 39 40 41 42 43 44 45 46 47 48 49 50
000
ASUS43 KFGF 190331
RWRFGF
PRAIRIE TO PINES  WEATHER ROUNDUP
NATIONAL WEATHER SERVICE EASTERN NORTH DAKOTA/GRAND FORKS ND
1000 PM CDT WED OCT 18 2017

 **SATELLITE DATA USED TO AUGMENT SKY COVER AT AUTOMATED STATIONS**
 *****  WEATHER ACROSS EASTERN NORTH DAKOTA  *****

CITY           SKY/WX    TMP DP  RH WIND       PRES   REMARKS
GRAND FORKS    FAIR      52  23  32 W13       29.88R
GRAND FRKS AFB FAIR      50  21  32 W18G25    29.87F
DEVILS LAKE    FAIR      47  28  47 W9        29.90S
FARGO          FAIR      45  25  45 SW8       29.94S
WAHPETON ARPT  NOT AVBL
$$

 ***** WEATHER ACROSS CENTRAL AND WESTERN NORTH DAKOTA  *****

CITY           SKY/WX    TMP DP  RH WIND       PRES   REMARKS
BISMARCK       FAIR      44  25  47 CALM      29.95F
MINOT          FAIR      43  24  47 SW8       29.88F
JAMESTOWN      FAIR      43  25  49 SW7       29.95S
MINOT AFB      FAIR      35  21  57 W6        29.87F
GARRISON         N/A     40  24  53 CALM      29.90F
WILLISTON      FAIR      36  25  64 CALM      29.87F
DICKINSON      FAIR      38  25  59 S7        29.90F
HETTINGER      FAIR      41  25  53 SE3       29.95F
$$

 *****  OTHER AIRPORT OBSERVATIONS IN OUR AREA  *****

CITY           SKY/WX    TMP DP  RH WIND       PRES   REMARKS
WALHALLA       FAIR     N/A N/A N/A W16G24    29.81R
GRAFTON AIRPOR FAIR      48  25  40 W18       29.88R
VALLEY CITY AR FAIR      41  25  52 SW8       29.97S
CANDO          FAIR      37  23  56 W8        29.90S
CAVALIER APRT  FAIR      50  18  27 W13G20    29.82R
GWINNER          N/A     41  30  65 CALM      29.98S
ROLLA          MIX PCPN  39  16  38 SW12      29.86S
 ***** THE ABOVE OBSERVATIONS ARE NON NWS ARE NOT QUALITY
       CONTROLLED AND MAY MIS-REPORT RAIN FOR SNOW...
$$

  *****  WEATHER ACROSS NORTHERN MINNESOTA  *****

CITY           SKY/WX    TMP DP  RH WIND       PRES   REMARKS
FLAG ISLAND    FAIR      52  16  24 W18G28    29.69R
WARROAD        FAIR      48  19  32 W20G26    29.76R
ROSEAU         FAIR      52  14  22 W21G32    29.78R
HALLOCK        FAIR      48  14  25 W18       29.82R
THF RVR FALLS  FAIR      48  20  32 W17       29.87R
BAUDETTE       FAIR      51  15  23 W20G36    29.75R
WASKISH        FAIR      52  28  40 W23G30    29.82R
CROOKSTON      FAIR      46  21  36 W13       29.90R
STEPHEN NDAWN    N/A     46  19  34 W13         N/A
GREENBUSH NDAW   N/A     48  18  29 W14         N/A
$$
  *****  WEATHER ACROSS CENTRAL AND WEST MINNESOTA  *****

CITY           SKY/WX    TMP DP  RH WIND       PRES   REMARKS
FOSSTON        FAIR      46  18  31 W13       29.90R
BEMIDJI        FAIR      47  19  32 W12       29.87R
PARK RAPIDS    FAIR      43  25  49 W12       29.91R
ELBOW LAKE     FAIR      41  29  63 SW10      29.99S
WADENA         FAIR      45  27  49 W5        29.95R
DETROIT LAKES  FAIR      50  23  34 W7        29.95R
MOORHEAD       FAIR      46  23  39 SW8       29.95F
FERGUS FALLS   FAIR      43  27  52 SW6       29.99R
MORRIS MN      FAIR      43  34  70 W8        30.00R
STAPLES        FAIR      43  21  42 W7        29.95R
$$
  *****  WEATHER ELSEWHERE ACROSS MINNESOTA  *****

CITY           SKY/WX    TMP DP  RH WIND       PRES   REMARKS
DULUTH         FAIR      49  18  29 W15G24    29.84R
INTRNTL FALLS  FAIR      50  15  24 W16G24    29.74R
ELY            FAIR      48  12  23 W15G23    29.77R
CLOQUET        FAIR      52  10  19 W12       29.87R
WHEATON        NOT AVBL
BRAINERD       FAIR      49  19  30 W9        29.94R
HIBBING        FAIR      49  17  28 W8        29.82R
ALEXANDRIA     FAIR      47  26  44 W9        29.98F
SAINT CLOUD    FAIR      48  30  49 W8        29.99R
MINNEAPOLIS    FAIR      55  27  34 W10       30.00R
$$

  *****  WEATHER ACROSS SOUTH DAKOTA  *****

CITY           SKY/WX    TMP DP  RH WIND       PRES   REMARKS
SIOUX FALLS    FAIR      47  36  65 CALM      30.05S
BROOKINGS      FAIR      44  33  65 CALM      30.06R
WATERTOWN      FAIR      43  31  62 SW6       30.03S
HURON          FAIR      47  32  56 S3        30.04S
SISSETON         N/A     50  30  46 W12       29.99S
ABERDEEN       FAIR      39  30  70 S6        30.02S
MITCHELL       FAIR      49  32  52 CALM      30.06R
PIERRE         FAIR      42  32  67 E5        30.01S
MOBRIDGE       FAIR      45  37  73 SE3       29.97F
RAPID CITY     FAIR      49  28  44 SE9       29.98F
$$

  *****  SOME WEATHER IN NEARBY STATES *****

CITY           SKY/WX    TMP DP  RH WIND       PRES   REMARKS
GLASGOW MT     FAIR      47  27  45 E12       29.79F
GREAT FALLS MT FAIR      58  33  39 SW17G24   29.77F
CHEYENNE WY    FAIR      52  20  28 S7        30.18S
SCOTTSBLUFF NE FAIR      45  30  55 E8        30.08R
OMAHA NE       FAIR      57  46  66 NW5       30.03R
DES MOINES IA  MOCLDY    63  49  60 CALM      30.03R
DAVENPORT IA   FAIR      59  43  55 SW8       30.07R
CHICAGO IL     FAIR      64  42  44 SW13      30.04R
EAU CLAIRE WI  FAIR      55  24  30 W12       29.94R
LA CROSSE WI   FAIR      63  40  42 NW12      29.96R
$$

  *****  SOME NATIONAL WEATHER *****

CITY           SKY/WX    TMP DP  RH WIND       PRES   REMARKS
LA GUARDIA NY  FAIR      65  48  54 SW7       30.28S
RALEIGH NC     FAIR      47  45  93 CALM      30.33S
ATLANTA GA     FAIR      56  43  61 E8        30.30R
NEW ORLEANS LA FAIR      66  59  78 E8        30.19R
OKLAHOMA CITY  MOCLDY    59  47  64 S7        30.07R
ALBUQUERQUE NM MOCLDY    64  23  21 E8        30.15S
SALT LAKE CITY FAIR      56  31  38 SE3       30.09F
LOS ANGELES CA FAIR      68  61  78 SW10      29.89S
BOISE ID       FAIR      63  26  24 SE9       29.92S
SEATTLE WA     RAIN      58  54  86 SW20G29   29.60S FOG
$$

*** WEATHER ACROSS MANITOBA...SASKATCHEWAN AND ONTARIO ***
                ***ONTARIO***

CITY           SKY/WX    TMP DP  RH WIND       PRES   REMARKS
GERALDTON      CLEAR     52  18  25 W20G29    29.53R
THUNDER BAY    CLEAR     52  21  30 SW9G17    29.66R
SIOUX LOOKOUT  CLEAR     50  14  23 W20G31    29.53S
TORONTO        CLEAR     55  43  62 S3        30.08F
BIG TROUT LK   LGT RAIN  39  36  87 W21G36    29.13
PICKLE LAKE    NOT AVBL
DRYDEN         CLEAR     50  14  23 W23G37    29.57R
KENORA         CLEAR     50  10  20 W17G28    29.63R
$$
                *** MANITOBA***

CITY           SKY/WX    TMP DP  RH WIND       PRES   REMARKS
BRANDON        CLEAR     45  14  29 W14G21    29.79R
DAUPHIN        CLEAR     46  14  27 W24G32    29.68R
ISLAND LAKE    LGT RAIN  37  32  81 W30G45    29.24R
PILOT MOUND      N/A     46  14  27 W13         N/A
THE PAS        PTCLDY    37  27  65 NW21G28   29.59R
THOMPSON       FLURRIES  32  30  93 NW13G21   29.32R WCI  22
WINNIPEG       CLEAR     48  14  25 W21G26    29.72R
LYNN LAKE      LGT SNOW  30  28  93 N10       29.52R WCI  21
CHURCHILL      LGT SNOW  34  32  93 NE30G45   29.31R BLWGSNOWWCI  20
GILLAM         DRIZZLE   34  32  93 N18G26    29.08R WCI  23
$$
                ***SASKATCHEWAN***

CITY           SKY/WX    TMP DP  RH WIND       PRES   REMARKS
ESTEVAN        PTCLDY    34  21  60 S5        29.84F
KINDERSLEY     MOCLDY    41  19  42 SE14      29.60F
LLOYDMINSTER   MOCLDY    39  19  45 SE12      29.55F
PRINCE ALBERT  PTCLDY    32  19  59 CALM      29.70R
REGINA         CLEAR     30  14  51 S7        29.78F WCI  23
YORKTON        CLEAR     37  14  38 SW12      29.73S
N. BATTLEFORD  CLEAR     36  18  48 E12       29.65F
LA RONGE       FLURRIES  34  28  80 W7        29.65S
SASKATOON      MOCLDY    36  16  44 SE5       29.70F
SWIFT CURRENT  MOCLDY    41  19  42 S14       29.68F
$$
NOTE: THESE ARE AUTOMATED STATIONS WITH LIMITED QUALITY CONTROL
      "FAIR" INDICATES FEW OR NO CLOUDS BELOW 12,000 FEET WITH NO
      SIGNIFICANT WEATHER AND/OR OBSTRUCTIONS TO VISIBILITY.
      SKY/WX - SKY CONDITION AND SIGNIFICANT WEATHER.
      TMP - AIR TEMPERATURE.    DP   - DEWPOINT TEMPERATURE.
      RH  - RELATIVE HUMIDITY.  PRES - PRESSURE.
      HX  - HEAT INDEX.         WCI  - WIND CHILL INDEX.
$




USA.gov is the U.S. government's official web portal to all federal, state and local government web resources and services.